Weather History for Atlantis, LA

Change the Weather History Date:

Wednesday, March 19, 2014

  Actual Average Record
Temperature  
Mean Temperature 68 °F -  
Max Temperature 69 °F - - ()
Min Temperature 66 °F - - ()
Cooling Degree Days 2    
Growing Degree Days 18 (Base 50)    
Moisture  
Dew Point 54 °F    
Average Humidity 63    
Maximum Humidity 68    
Minimum Humidity 60    
Precipitation  
Precipitation 0.00 in - - ()
Sea Level Pressure  
Sea Level Pressure 30.13 in    
Wind  
Wind Speed 9 mph (ESE)    
Max Wind Speed 17 mph    
Max Gust Speed 21 mph    
Visibility 10 miles    
Events      
T = Trace of Precipitation, MM = Missing Value Source: NWS Daily Summary

Daily Weather History Graph

Daily Weather History Graph

Search for Another Location

Airport:

Trip Planner

Search our weather history database for the weather conditions in past years. The results will help you decide how hot, cold, wet, or windy it might be!

Date:

Astronomy

Mar. 19, 2014 Rise Set
Actual Time 7:05 AM CDT 7:10 PM CDT
Civil Twilight 6:41 AM CDT 7:34 PM CDT
Nautical Twilight 6:14 AM CDT 8:01 PM CDT
Astronomical Twilight 5:47 AM CDT 8:28 PM CDT
Moon 10:10 PM CDT (3/19) 8:47 AM CDT (3/19)
Length of Visible Light 12h 52m
Length of Day
12h 05m
Waning Gibbous, 91% of the Moon is Illuminated
Mar 19
Waning Gibbous
Mar 23
Last Quarter
Mar 30
New
Apr 7
First Quarter
Apr 15
Full

Hourly Weather History & Observations

Time (CDT) Temp. Dew Point Humidity Pressure Visibility Wind Dir Wind Speed Gust Speed Precip Events Conditions
12:15 AM 66.2 °F 53.6 °F 64% 30.06 in 10.0 mi SSE 10.4 mph - N/A   Scattered Clouds
12:35 AM 66.2 °F 53.6 °F 64% 30.05 in 10.0 mi SSE 10.4 mph 18.4 mph N/A   Mostly Cloudy
12:55 AM 66.2 °F 53.6 °F 64% 30.05 in 10.0 mi SSE 12.7 mph - N/A   Mostly Cloudy
1:15 AM 66.2 °F 53.6 °F 64% 30.04 in 10.0 mi SSE 13.8 mph - N/A   Scattered Clouds
1:35 AM 66.2 °F 53.6 °F 64% 30.04 in 10.0 mi South 17.3 mph - N/A   Partly Cloudy
1:55 AM 66.2 °F 53.6 °F 64% 30.04 in 10.0 mi South 12.7 mph 20.7 mph N/A   Partly Cloudy
2:15 AM 66.2 °F 53.6 °F 64% 30.04 in 10.0 mi South 12.7 mph 19.6 mph N/A   Clear
2:35 AM 66.2 °F 53.6 °F 64% 30.04 in 10.0 mi South 9.2 mph 17.3 mph N/A   Partly Cloudy
2:55 AM 66.2 °F 53.6 °F 64% 30.04 in 10.0 mi South 10.4 mph 17.3 mph N/A   Scattered Clouds
3:15 AM 66.2 °F 53.6 °F 64% 30.04 in 10.0 mi South 9.2 mph - N/A   Scattered Clouds
3:35 AM 66.2 °F 53.6 °F 64% 30.03 in 10.0 mi South 9.2 mph - N/A   Partly Cloudy
3:55 AM 66.2 °F 53.6 °F 64% 30.04 in 10.0 mi South 8.1 mph - N/A   Partly Cloudy
4:15 AM 66.2 °F 53.6 °F 64% 30.05 in 10.0 mi South 6.9 mph - N/A   Scattered Clouds
4:35 AM 66.2 °F 53.6 °F 64% 30.06 in 10.0 mi SSE 6.9 mph - N/A   Mostly Cloudy
4:55 AM 66.2 °F 53.6 °F 64% 30.06 in 10.0 mi SE 3.5 mph 11.5 mph N/A   Mostly Cloudy
5:15 AM 66.2 °F 53.6 °F 64% 30.07 in 10.0 mi Calm Calm - N/A   Mostly Cloudy
5:35 AM 66.2 °F 53.6 °F 64% 30.08 in 10.0 mi SSE 4.6 mph - N/A   Overcast
5:55 AM 66.2 °F 53.6 °F 64% 30.09 in 10.0 mi SE 4.6 mph - N/A   Scattered Clouds
6:15 AM 66.2 °F 53.6 °F 64% 30.10 in 10.0 mi Calm Calm - N/A   Partly Cloudy
6:35 AM 66.2 °F 53.6 °F 64% 30.10 in 10.0 mi ESE 4.6 mph - N/A   Partly Cloudy
6:55 AM 66.2 °F 53.6 °F 64% 30.10 in 10.0 mi SE 6.9 mph - N/A   Partly Cloudy
7:15 AM 66.2 °F 53.6 °F 64% 30.10 in 10.0 mi SE 4.6 mph - N/A   Clear
7:35 AM 66.2 °F 55.4 °F 68% 30.11 in 10.0 mi SE 6.9 mph - N/A   Clear
7:55 AM 66.2 °F 55.4 °F 68% 30.13 in 10.0 mi SE 5.8 mph - N/A   Clear
8:15 AM 66.2 °F 53.6 °F 64% 30.14 in 10.0 mi SE 4.6 mph - N/A   Clear
8:35 AM 66.2 °F 53.6 °F 64% 30.14 in 10.0 mi SE 6.9 mph - N/A   Clear
8:55 AM 66.2 °F 53.6 °F 64% 30.14 in 10.0 mi SE 6.9 mph - N/A   Clear
9:15 AM 66.2 °F 53.6 °F 64% 30.15 in 10.0 mi ESE 4.6 mph - N/A   Clear
9:35 AM 68.0 °F 53.6 °F 60% 30.15 in 10.0 mi ESE 6.9 mph - N/A   Clear
9:55 AM 66.2 °F 53.6 °F 64% 30.15 in 10.0 mi ESE 5.8 mph - N/A   Clear
10:15 AM 68.0 °F 53.6 °F 60% 30.16 in 10.0 mi ESE 8.1 mph - N/A   Clear
10:35 AM 68.0 °F 53.6 °F 60% 30.17 in 10.0 mi SE 9.2 mph - N/A   Clear
10:55 AM 68.0 °F 55.4 °F 64% 30.17 in 10.0 mi SE 8.1 mph - N/A   Clear
11:15 AM 68.0 °F 55.4 °F 64% 30.18 in 10.0 mi ESE 8.1 mph - N/A   Clear
11:35 AM 68.0 °F 55.4 °F 64% 30.18 in 10.0 mi ESE 6.9 mph - N/A   Clear
11:55 AM 68.0 °F 55.4 °F 64% 30.19 in 10.0 mi East 8.1 mph - N/A   Clear
12:15 PM 68.0 °F 55.4 °F 64% 30.18 in 10.0 mi East 8.1 mph - N/A   Clear
12:35 PM 68.0 °F 55.4 °F 64% 30.17 in 10.0 mi East 9.2 mph - N/A   Clear
12:55 PM 69.8 °F 55.4 °F 60% 30.17 in 10.0 mi East 8.1 mph - N/A   Clear
1:15 PM 68.0 °F 55.4 °F 64% 30.17 in 10.0 mi ENE 8.1 mph - N/A   Clear
1:35 PM 68.0 °F 55.4 °F 64% 30.17 in 10.0 mi ENE 8.1 mph - N/A   Clear
1:55 PM 68.0 °F 55.4 °F 64% 30.17 in 10.0 mi ENE 9.2 mph - N/A   Clear
2:15 PM 68.0 °F 55.4 °F 64% 30.16 in 10.0 mi NE 10.4 mph - N/A   Partly Cloudy
2:35 PM 68.0 °F 55.4 °F 64% 30.15 in 10.0 mi ENE 9.2 mph - N/A   Scattered Clouds
2:55 PM 68.0 °F 55.4 °F 64% 30.14 in 10.0 mi ENE 9.2 mph - N/A   Partly Cloudy
3:15 PM 68.0 °F 53.6 °F 60% 30.13 in 10.0 mi East 10.4 mph - N/A   Clear
3:35 PM 68.0 °F 55.4 °F 64% 30.13 in 10.0 mi East 9.2 mph - N/A   Clear
3:55 PM 68.0 °F 53.6 °F 60% 30.12 in 10.0 mi East 10.4 mph - N/A   Clear
4:15 PM 68.0 °F 53.6 °F 60% 30.12 in 10.0 mi East 9.2 mph - N/A   Clear
4:35 PM 68.0 °F 53.6 °F 60% 30.12 in 10.0 mi East 10.4 mph - N/A   Clear
4:55 PM 68.0 °F 53.6 °F 60% 30.12 in 10.0 mi ENE 8.1 mph - N/A   Clear
5:15 PM 68.0 °F 53.6 °F 60% 30.12 in 10.0 mi ENE 9.2 mph - N/A   Clear
5:35 PM 68.0 °F 53.6 °F 60% 30.12 in 10.0 mi East 9.2 mph - N/A   Clear
5:55 PM 68.0 °F 53.6 °F 60% 30.13 in 10.0 mi East 9.2 mph - N/A   Clear
6:15 PM 68.0 °F 55.4 °F 64% 30.13 in 10.0 mi East 9.2 mph - N/A   Clear
6:35 PM 68.0 °F 55.4 °F 64% 30.13 in 10.0 mi East 9.2 mph - N/A   Clear
6:55 PM 68.0 °F 55.4 °F 64% 30.14 in 10.0 mi ENE 8.1 mph - N/A   Clear
7:15 PM 68.0 °F 55.4 °F 64% 30.15 in 10.0 mi East 8.1 mph - N/A   Clear
7:35 PM 68.0 °F 53.6 °F 60% 30.15 in 10.0 mi NE 8.1 mph - N/A   Clear
7:55 PM 68.0 °F 55.4 °F 64% 30.16 in 10.0 mi East 8.1 mph - N/A   Clear
8:15 PM 68.0 °F 53.6 °F 60% 30.16 in 10.0 mi East 6.9 mph - N/A   Clear
8:35 PM 68.0 °F 55.4 °F 64% 30.16 in 10.0 mi East 6.9 mph - N/A   Clear
8:55 PM 68.0 °F 55.4 °F 64% 30.17 in 10.0 mi ENE 6.9 mph - N/A   Clear
9:15 PM 68.0 °F 53.6 °F 60% 30.18 in 10.0 mi ENE 6.9 mph - N/A   Clear
9:35 PM 68.0 °F 55.4 °F 64% 30.18 in 10.0 mi NNE 8.1 mph - N/A   Clear
9:55 PM 68.0 °F 55.4 °F 64% 30.19 in 10.0 mi NE 8.1 mph - N/A   Clear
10:15 PM 68.0 °F 53.6 °F 60% 30.18 in 10.0 mi NE 8.1 mph - N/A   Clear
10:35 PM 68.0 °F 55.4 °F 64% 30.18 in 10.0 mi NE 9.2 mph - N/A   Clear
10:55 PM 68.0 °F 53.6 °F 60% 30.18 in 10.0 mi NE 9.2 mph - N/A   Clear
11:15 PM 68.0 °F 53.6 °F 60% 30.18 in 10.0 mi NE 8.1 mph - N/A   Clear
11:35 PM 68.0 °F 55.4 °F 64% 30.18 in 10.0 mi ENE 9.2 mph - N/A   Clear
11:55 PM 66.2 °F 55.4 °F 68% 30.17 in 10.0 mi East 8.1 mph - N/A   Clear